Flag for U.S.A. Weather past 2 weeks in Tempe, Arizona, U.S.A.

Now
103 °F

Scattered clouds.


Feels Like: 97 °F
Forecast: 68 / 101 °F
Wind: 3 mph from North

Location: Phoenix Sky Harbor International Airport

Current Time: May 30, 2015 at 2:50:55 PM

Latest Report: May 30, 2015 at 1:51 PM


Visibility: 10 mi

Pressure: 29.80 "Hg

Humidity: 7%

Dew point: 27 °F

Location of TempeLocation

Historic Weather in Tempe — Graph

°F

Tempe temperature yesterday

Maximum temperature yesterday: 102 °F (at 4:51 PM)
Minimum temperature yesterday: 74 °F (at 4:51 AM)
Average temperature yesterday: 89 °F

Past Weeks' High & Low Weather Summary

 TemperatureHumidityPressure
High102 °F (May 29, 4:51 PM)90% (May 15, 3:56 PM)29.96 "Hg (May 15, 3:56 PM)
Low57 °F (May 15, 11:51 PM)5% (May 29, 3:51 PM)29.67 "Hg (May 21, 4:51 PM)
Average79 °F26%29.82 "Hg
* Reported May 15 12:51 PM — May 30 12:51 PM, Tempe, Weather by CustomWeather, © 2015

Note: Actual official high and low records may vary slightly from our data, if they occured in-between our weather recording intervals... More about our weather records

Advertising

Tempe weather history for previous 24 hours

 ConditionsComfort  
Time TempWeatherWind HumidityBarometerVisibility
12:51 PM
Sat, May 30
100 °FScattered clouds.7 mph9%29.82 "Hg10 mi
11:51 AM96 °FScattered clouds.5 mph11%29.84 "Hg10 mi
10:51 AM93 °FScattered clouds.No wind11%29.85 "Hg10 mi
9:51 AM90 °FPassing clouds.No wind14%29.86 "Hg10 mi
8:51 AM86 °FPassing clouds.6 mph16%29.86 "Hg10 mi
7:51 AM82 °FPassing clouds.8 mph18%29.85 "Hg10 mi
6:51 AM78 °FScattered clouds.6 mph24%29.84 "Hg10 mi
5:51 AM75 °FPassing clouds.6 mph28%29.83 "Hg10 mi
4:51 AM78 °FPassing clouds.No wind21%29.81 "Hg10 mi
3:51 AM81 °FClear.5 mph18%29.80 "Hg10 mi
2:51 AM82 °FClear.5 mph19%29.78 "Hg10 mi
1:51 AM81 °FClear.8 mph19%29.78 "Hg10 mi
12:51 AM82 °FClear.7 mph19%29.78 "Hg10 mi
11:51 PM
Fri, May 29
85 °FClear.5 mph17%29.78 "Hg10 mi
10:51 PM91 °FClear.3 mph10%29.77 "Hg10 mi
9:51 PM91 °FClear.3 mph11%29.76 "Hg10 mi
8:51 PM92 °FClear.5 mph10%29.75 "Hg10 mi
7:51 PM98 °FPassing clouds.10 mph6%29.74 "Hg10 mi
6:51 PM100 °FPassing clouds.10 mph5%29.72 "Hg10 mi
5:51 PM100 °FPassing clouds.9 mph6%29.72 "Hg10 mi
4:51 PM102 °FPassing clouds.12 mph5%29.73 "Hg10 mi
3:51 PM101 °FPassing clouds.No wind5%29.75 "Hg10 mi
2:51 PM101 °FPassing clouds.N/A6%29.77 "Hg10 mi
Weather by CustomWeather, © 2015

See weather overviewHow to use our weather pages